Location: Fours
(44.3167°N, 6.7000°E)
Time: 21:58:05
(UTC+00:00)

Cosmos 371 Rocket - Pass Details

Date: 16 October 2021
Orbit: 683 x 699 km, 74.0° (Epoch: 29 November)

Event Time Altitude Azimuth Distance (km) Brightness Sun altitude
Rises 19:23:15 0° 210° (SSW) 3,051 6.8 -28.5°
Reaches altitude 10° 19:25:34 10° 214° (SSW) 2,141 6.0 -28.9°
Enters shadow 19:28:55 41° 237° (WSW) 998 4.3 -29.5°
